Wetterdaten: Donnerstag, 18.12.2014
Datum Zeit Temperatur Luftfeuchte Luftdruck Regen Wind Richtung Richtung Sonnenschein ET UV Solar Taupunkt Windchill Windben
18.12.2014 00:00 7,0 C 97 % 1011,2 hPa 0,0 l/m 0,7 km/h (0 Bft) W 272 0 min 0,000 mm 0,0 UV-I 0 W/m 6,6 C 7,0 C 4,8 km/h (1 Bft)
18.12.2014 00:05 7,1 C 97 % 1011,3 hPa 0,0 l/m 1,0 km/h (0 Bft) W 272 0 min 0,000 mm 0,0 UV-I 0 W/m 6,7 C 7,1 C 4,8 km/h (1 Bft)
18.12.2014 00:10 7,1 C 97 % 1011,2 hPa 0,0 l/m 1,0 km/h (0 Bft) W 272 0 min 0,000 mm 0,0 UV-I 0 W/m 6,7 C 7,1 C 4,8 km/h (1 Bft)
18.12.2014 00:15 7,1 C 97 % 1011,3 hPa 0,0 l/m 1,3 km/h (1 Bft) W 272 0 min 0,000 mm 0,0 UV-I 0 W/m 6,7 C 7,1 C 4,8 km/h (1 Bft)
18.12.2014 00:20 7,1 C 97 % 1011,2 hPa 0,0 l/m 0,2 km/h (0 Bft) W 272 0 min 0,000 mm 0,0 UV-I 0 W/m 6,7 C 7,1 C 3,2 km/h (1 Bft)
18.12.2014 00:25 7,0 C 97 % 1011,1 hPa 0,0 l/m 0,0 km/h (0 Bft) W 272 0 min 0,000 mm 0,0 UV-I 0 W/m 6,6 C 7,0 C 1,6 km/h (1 Bft)
18.12.2014 00:30 7,0 C 97 % 1011,2 hPa 0,0 l/m 1,4 km/h (1 Bft) W-NW 287 0 min 0,000 mm 0,0 UV-I 0 W/m 6,6 C 7,0 C 6,4 km/h (2 Bft)
18.12.2014 00:35 7,2 C 97 % 1011,3 hPa 0,0 l/m 1,8 km/h (1 Bft) W-NW 292 0 min 0,000 mm 0,0 UV-I 0 W/m 6,8 C 7,2 C 6,4 km/h (2 Bft)
18.12.2014 00:40 7,3 C 97 % 1011,4 hPa 0,0 l/m 2,4 km/h (1 Bft) W-NW 285 0 min 0,000 mm 0,0 UV-I 0 W/m 6,9 C 7,3 C 6,4 km/h (2 Bft)
18.12.2014 00:45 7,4 C 97 % 1011,4 hPa 0,0 l/m 2,7 km/h (1 Bft) W-NW 286 0 min 0,000 mm 0,0 UV-I 0 W/m 7,0 C 7,4 C 6,4 km/h (2 Bft)
18.12.2014 00:50 7,4 C 97 % 1011,3 hPa 0,0 l/m 2,1 km/h (1 Bft) W-NW 284 0 min 0,000 mm 0,0 UV-I 0 W/m 7,0 C 7,4 C 6,4 km/h (2 Bft)
18.12.2014 00:55 7,4 C 97 % 1011,4 hPa 0,0 l/m 4,2 km/h (1 Bft) W 273 0 min 0,000 mm 0,0 UV-I 0 W/m 7,0 C 7,4 C 8,0 km/h (2 Bft)
18.12.2014 01:00 7,3 C 97 % 1011,5 hPa 0,0 l/m 3,0 km/h (1 Bft) W 269 0 min 0,000 mm 0,0 UV-I 0 W/m 6,9 C 7,3 C 6,4 km/h (2 Bft)
18.12.2014 01:05 7,3 C 97 % 1011,5 hPa 0,0 l/m 2,9 km/h (1 Bft) W-SW 255 0 min 0,000 mm 0,0 UV-I 0 W/m 6,9 C 7,3 C 6,4 km/h (2 Bft)
18.12.2014 01:10 7,4 C 97 % 1011,5 hPa 0,0 l/m 3,8 km/h (1 Bft) W 278 0 min 0,000 mm 0,0 UV-I 0 W/m 7,0 C 7,4 C 11,3 km/h (2 Bft)
18.12.2014 01:15 7,4 C 97 % 1011,5 hPa 0,0 l/m 4,9 km/h (1 Bft) W 271 0 min 0,000 mm 0,0 UV-I 0 W/m 7,0 C 7,4 C 9,7 km/h (2 Bft)
18.12.2014 01:20 7,4 C 97 % 1011,6 hPa 0,0 l/m 5,2 km/h (1 Bft) W 270 0 min 0,000 mm 0,0 UV-I 0 W/m 7,0 C 7,4 C 8,0 km/h (2 Bft)
18.12.2014 01:25 7,5 C 97 % 1011,7 hPa 0,0 l/m 3,3 km/h (1 Bft) W 280 0 min 0,000 mm 0,0 UV-I 0 W/m 7,1 C 7,5 C 11,3 km/h (2 Bft)
18.12.2014 01:30 7,6 C 97 % 1011,9 hPa 0,0 l/m 5,0 km/h (1 Bft) W 274 0 min 0,000 mm 0,0 UV-I 0 W/m 7,2 C 7,6 C 8,0 km/h (2 Bft)
18.12.2014 01:35 7,7 C 97 % 1011,9 hPa 0,0 l/m 4,8 km/h (1 Bft) W 259 0 min 0,000 mm 0,0 UV-I 0 W/m 7,3 C 7,7 C 8,0 km/h (2 Bft)
18.12.2014 01:40 7,7 C 97 % 1011,8 hPa 0,0 l/m 4,8 km/h (1 Bft) W 273 0 min 0,000 mm 0,0 UV-I 0 W/m 7,3 C 7,7 C 8,0 km/h (2 Bft)
18.12.2014 01:45 7,7 C 97 % 1011,7 hPa 0,0 l/m 3,3 km/h (1 Bft) W-NW 298 0 min 0,000 mm 0,0 UV-I 0 W/m 7,3 C 7,7 C 8,0 km/h (2 Bft)
18.12.2014 01:50 7,7 C 97 % 1011,6 hPa 0,0 l/m 2,5 km/h (1 Bft) W-NW 292 0 min 0,000 mm 0,0 UV-I 0 W/m 7,3 C 7,7 C 8,0 km/h (2 Bft)
18.12.2014 01:55 7,8 C 97 % 1011,7 hPa 0,0 l/m 3,0 km/h (1 Bft) W-NW 282 0 min 0,000 mm 0,0 UV-I 0 W/m 7,4 C 7,8 C 8,0 km/h (2 Bft)
18.12.2014 02:00 7,8 C 97 % 1011,8 hPa 0,0 l/m 2,4 km/h (1 Bft) NW 305 0 min 0,000 mm 0,0 UV-I 0 W/m 7,4 C 7,8 C 8,0 km/h (2 Bft)
18.12.2014 02:05 7,8 C 97 % 1011,9 hPa 0,0 l/m 3,8 km/h (1 Bft) W-NW 295 0 min 0,000 mm 0,0 UV-I 0 W/m 7,4 C 7,8 C 9,7 km/h (2 Bft)
18.12.2014 02:10 7,9 C 97 % 1011,8 hPa 0,0 l/m 6,5 km/h (2 Bft) W 269 0 min 0,000 mm 0,0 UV-I 0 W/m 7,5 C 7,8 C 11,3 km/h (2 Bft)
18.12.2014 02:15 7,9 C 97 % 1012,0 hPa 0,2 l/m 6,4 km/h (2 Bft) W-NW 294 0 min 0,000 mm 0,0 UV-I 0 W/m 7,5 C 7,9 C 11,3 km/h (2 Bft)
18.12.2014 02:20 7,9 C 97 % 1012,0 hPa 0,0 l/m 6,2 km/h (2 Bft) W-NW 302 0 min 0,000 mm 0,0 UV-I 0 W/m 7,5 C 7,9 C 11,3 km/h (2 Bft)
18.12.2014 02:25 7,9 C 97 % 1011,8 hPa 0,0 l/m 5,8 km/h (2 Bft) W 269 0 min 0,000 mm 0,0 UV-I 0 W/m 7,5 C 7,9 C 12,9 km/h (3 Bft)
18.12.2014 02:30 7,9 C 97 % 1011,8 hPa 0,0 l/m 5,4 km/h (1 Bft) W-NW 287 0 min 0,000 mm 0,0 UV-I 0 W/m 7,5 C 7,9 C 11,3 km/h (2 Bft)
18.12.2014 02:35 7,9 C 97 % 1011,9 hPa 0,0 l/m 5,4 km/h (1 Bft) W-SW 242 0 min 0,000 mm 0,0 UV-I 0 W/m 7,5 C 7,9 C 12,9 km/h (3 Bft)
18.12.2014 02:40 8,0 C 96 % 1012,0 hPa 0,0 l/m 7,1 km/h (2 Bft) W 275 0 min 0,000 mm 0,0 UV-I 0 W/m 7,4 C 7,4 C 11,3 km/h (2 Bft)
18.12.2014 02:45 8,1 C 97 % 1012,0 hPa 0,0 l/m 5,6 km/h (1 Bft) W-SW 242 0 min 0,000 mm 0,0 UV-I 0 W/m 7,7 C 8,1 C 11,3 km/h (2 Bft)
18.12.2014 02:50 8,1 C 96 % 1012,0 hPa 0,0 l/m 6,0 km/h (2 Bft) W 264 0 min 0,000 mm 0,0 UV-I 0 W/m 7,5 C 8,1 C 11,3 km/h (2 Bft)
18.12.2014 02:55 8,1 C 96 % 1011,9 hPa 0,0 l/m 5,3 km/h (1 Bft) W-NW 291 0 min 0,000 mm 0,0 UV-I 0 W/m 7,5 C 8,1 C 11,3 km/h (2 Bft)
18.12.2014 03:00 8,1 C 96 % 1011,9 hPa 0,0 l/m 6,1 km/h (2 Bft) W 273 0 min 0,000 mm 0,0 UV-I 0 W/m 7,5 C 8,1 C 12,9 km/h (3 Bft)
18.12.2014 03:05 8,1 C 96 % 1011,9 hPa 0,0 l/m 5,2 km/h (1 Bft) W 281 0 min 0,000 mm 0,0 UV-I 0 W/m 7,5 C 8,1 C 8,0 km/h (2 Bft)
18.12.2014 03:10 8,1 C 96 % 1012,0 hPa 0,0 l/m 4,3 km/h (1 Bft) W-SW 254 0 min 0,000 mm 0,0 UV-I 0 W/m 7,5 C 8,1 C 11,3 km/h (2 Bft)
18.12.2014 03:15 8,2 C 96 % 1012,0 hPa 0,0 l/m 3,5 km/h (1 Bft) W 272 0 min 0,000 mm 0,0 UV-I 0 W/m 7,6 C 8,2 C 11,3 km/h (2 Bft)
18.12.2014 03:20 8,2 C 96 % 1012,0 hPa 0,0 l/m 3,4 km/h (1 Bft) W-SW 244 0 min 0,000 mm 0,0 UV-I 0 W/m 7,6 C 8,2 C 9,7 km/h (2 Bft)
18.12.2014 03:25 8,2 C 96 % 1012,0 hPa 0,0 l/m 5,6 km/h (1 Bft) W 281 0 min 0,000 mm 0,0 UV-I 0 W/m 7,6 C 8,2 C 9,7 km/h (2 Bft)
18.12.2014 03:30 8,2 C 96 % 1012,0 hPa 0,0 l/m 3,0 km/h (1 Bft) W 275 0 min 0,000 mm 0,0 UV-I 0 W/m 7,6 C 8,2 C 8,0 km/h (2 Bft)
18.12.2014 03:35 8,2 C 96 % 1011,9 hPa 0,0 l/m 0,2 km/h (0 Bft) W-SW 258 0 min 0,000 mm 0,0 UV-I 0 W/m 7,6 C 8,2 C 3,2 km/h (1 Bft)
18.12.2014 03:40 8,2 C 96 % 1011,9 hPa 0,0 l/m 0,0 km/h (0 Bft) W-SW 258 0 min 0,000 mm 0,0 UV-I 0 W/m 7,6 C 8,2 C 0,0 km/h (0 Bft)
18.12.2014 03:45 8,2 C 96 % 1011,9 hPa 0,0 l/m 0,0 km/h (0 Bft) W-SW 258 0 min 0,000 mm 0,0 UV-I 0 W/m 7,6 C 8,2 C 0,0 km/h (0 Bft)
18.12.2014 03:50 8,2 C 96 % 1012,0 hPa 0,0 l/m 0,1 km/h (0 Bft) S 180 0 min 0,000 mm 0,0 UV-I 0 W/m 7,6 C 8,2 C 3,2 km/h (1 Bft)
18.12.2014 03:55 8,2 C 96 % 1012,0 hPa 0,0 l/m 0,0 km/h (0 Bft) SW 236 0 min 0,000 mm 0,0 UV-I 0 W/m 7,6 C 8,2 C 1,6 km/h (1 Bft)
18.12.2014 04:00 8,3 C 96 % 1012,0 hPa 0,0 l/m 1,5 km/h (1 Bft) W 264 0 min 0,000 mm 0,0 UV-I 0 W/m 7,7 C 8,3 C 4,8 km/h (1 Bft)
18.12.2014 04:05 8,3 C 96 % 1012,1 hPa 0,0 l/m 1,6 km/h (1 Bft) W-NW 299 0 min 0,000 mm 0,0 UV-I 0 W/m 7,7 C 8,3 C 4,8 km/h (1 Bft)
18.12.2014 04:10 8,3 C 96 % 1011,9 hPa 0,0 l/m 0,2 km/h (0 Bft) W-NW 299 0 min 0,000 mm 0,0 UV-I 0 W/m 7,7 C 8,3 C 3,2 km/h (1 Bft)
18.12.2014 04:15 8,3 C 96 % 1011,9 hPa 0,0 l/m 0,1 km/h (0 Bft) W-SW 244 0 min 0,000 mm 0,0 UV-I 0 W/m 7,7 C 8,3 C 4,8 km/h (1 Bft)
18.12.2014 04:20 8,3 C 96 % 1011,9 hPa 0,0 l/m 0,1 km/h (0 Bft) W-SW 244 0 min 0,000 mm 0,0 UV-I 0 W/m 7,7 C 8,3 C 1,6 km/h (1 Bft)
18.12.2014 04:25 8,3 C 96 % 1011,9 hPa 0,0 l/m 0,0 km/h (0 Bft) W-SW 244 0 min 0,000 mm 0,0 UV-I 0 W/m 7,7 C 8,3 C 1,6 km/h (1 Bft)
18.12.2014 04:30 8,3 C 96 % 1011,9 hPa 0,0 l/m 0,0 km/h (0 Bft) W-SW 244 0 min 0,000 mm 0,0 UV-I 0 W/m 7,7 C 8,3 C 0,0 km/h (0 Bft)
18.12.2014 04:35 8,3 C 96 % 1011,9 hPa 0,0 l/m 0,0 km/h (0 Bft) W-SW 244 0 min 0,000 mm 0,0 UV-I 0 W/m 7,7 C 8,3 C 0,0 km/h (0 Bft)
18.12.2014 04:40 8,3 C 96 % 1011,9 hPa 0,0 l/m 0,0 km/h (0 Bft) W-SW 244 0 min 0,000 mm 0,0 UV-I 0 W/m 7,7 C 8,3 C 0,0 km/h (0 Bft)
18.12.2014 04:45 8,3 C 96 % 1011,9 hPa 0,0 l/m 0,0 km/h (0 Bft) W-SW 244 0 min 0,000 mm 0,0 UV-I 0 W/m 7,7 C 8,3 C 0,0 km/h (0 Bft)
18.12.2014 04:50 8,3 C 96 % 1011,9 hPa 0,0 l/m 0,0 km/h (0 Bft) W-SW 244 0 min 0,000 mm 0,0 UV-I 0 W/m 7,7 C 8,3 C 1,6 km/h (1 Bft)
18.12.2014 04:55 8,4 C 96 % 1011,9 hPa 0,0 l/m 0,0 km/h (0 Bft) W-SW 244 0 min 0,000 mm 0,0 UV-I 0 W/m 7,8 C 8,4 C 1,6 km/h (1 Bft)
18.12.2014 05:00 8,4 C 96 % 1011,9 hPa 0,0 l/m 0,7 km/h (0 Bft) SW 230 0 min 0,000 mm 0,0 UV-I 0 W/m 7,8 C 8,4 C 6,4 km/h (2 Bft)
18.12.2014 05:05 8,5 C 96 % 1012,0 hPa 0,0 l/m 0,2 km/h (0 Bft) SW 230 0 min 0,000 mm 0,0 UV-I 0 W/m 7,9 C 8,5 C 3,2 km/h (1 Bft)
18.12.2014 05:10 8,5 C 96 % 1012,0 hPa 0,0 l/m 0,2 km/h (0 Bft) SW 230 0 min 0,000 mm 0,0 UV-I 0 W/m 7,9 C 8,5 C 3,2 km/h (1 Bft)
18.12.2014 05:15 8,5 C 96 % 1011,9 hPa 0,0 l/m 1,3 km/h (1 Bft) W 263 0 min 0,000 mm 0,0 UV-I 0 W/m 7,9 C 8,5 C 9,7 km/h (2 Bft)
18.12.2014 05:20 8,6 C 96 % 1011,8 hPa 0,0 l/m 1,7 km/h (1 Bft) SW 232 0 min 0,000 mm 0,0 UV-I 0 W/m 8,0 C 8,6 C 9,7 km/h (2 Bft)
18.12.2014 05:25 8,6 C 96 % 1011,8 hPa 0,0 l/m 0,7 km/h (0 Bft) W-SW 241 0 min 0,000 mm 0,0 UV-I 0 W/m 8,0 C 8,6 C 4,8 km/h (1 Bft)
18.12.2014 05:30 8,6 C 96 % 1011,7 hPa 0,0 l/m 0,0 km/h (0 Bft) W-SW 241 0 min 0,000 mm 0,0 UV-I 0 W/m 8,0 C 8,6 C 0,0 km/h (0 Bft)
18.12.2014 05:35 8,5 C 96 % 1011,7 hPa 0,0 l/m 0,0 km/h (0 Bft) W-SW 241 0 min 0,000 mm 0,0 UV-I 0 W/m 7,9 C 8,5 C 0,0 km/h (0 Bft)
18.12.2014 05:40 8,5 C 96 % 1011,8 hPa 0,0 l/m 0,0 km/h (0 Bft) W-SW 241 0 min 0,000 mm 0,0 UV-I 0 W/m 7,9 C 8,5 C 1,6 km/h (1 Bft)
18.12.2014 05:45 8,5 C 96 % 1011,9 hPa 0,0 l/m 1,1 km/h (1 Bft) W 263 0 min 0,000 mm 0,0 UV-I 0 W/m 7,9 C 8,5 C 4,8 km/h (1 Bft)
18.12.2014 05:50 8,5 C 96 % 1011,9 hPa 0,0 l/m 3,5 km/h (1 Bft) SW 231 0 min 0,000 mm 0,0 UV-I 0 W/m 7,9 C 8,5 C 9,7 km/h (2 Bft)
18.12.2014 05:55 8,6 C 96 % 1011,8 hPa 0,0 l/m 2,9 km/h (1 Bft) W-NW 300 0 min 0,000 mm 0,0 UV-I 0 W/m 8,0 C 8,6 C 8,0 km/h (2 Bft)
18.12.2014 06:00 8,6 C 96 % 1011,9 hPa 0,0 l/m 2,6 km/h (1 Bft) W-SW 241 0 min 0,000 mm 0,0 UV-I 0 W/m 8,0 C 8,6 C 8,0 km/h (2 Bft)
18.12.2014 06:05 8,6 C 96 % 1012,0 hPa 0,0 l/m 2,6 km/h (1 Bft) W 269 0 min 0,000 mm 0,0 UV-I 0 W/m 8,0 C 8,6 C 8,0 km/h (2 Bft)
18.12.2014 06:10 8,6 C 96 % 1011,9 hPa 0,0 l/m 4,0 km/h (1 Bft) W-SW 237 0 min 0,000 mm 0,0 UV-I 0 W/m 8,0 C 8,6 C 9,7 km/h (2 Bft)
18.12.2014 06:15 8,7 C 96 % 1011,9 hPa 0,0 l/m 3,0 km/h (1 Bft) W-SW 250 0 min 0,000 mm 0,0 UV-I 0 W/m 8,1 C 8,7 C 9,7 km/h (2 Bft)
18.12.2014 06:20 8,7 C 96 % 1011,9 hPa 0,0 l/m 1,6 km/h (1 Bft) W-SW 251 0 min 0,000 mm 0,0 UV-I 0 W/m 8,1 C 8,7 C 4,8 km/h (1 Bft)
18.12.2014 06:25 8,7 C 96 % 1012,0 hPa 0,0 l/m 1,1 km/h (1 Bft) SW 231 0 min 0,000 mm 0,0 UV-I 0 W/m 8,1 C 8,7 C 6,4 km/h (2 Bft)
18.12.2014 06:30 8,7 C 96 % 1012,0 hPa 0,0 l/m 1,9 km/h (1 Bft) W 260 0 min 0,000 mm 0,0 UV-I 0 W/m 8,1 C 8,7 C 8,0 km/h (2 Bft)
18.12.2014 06:35 8,8 C 96 % 1011,9 hPa 0,0 l/m 2,6 km/h (1 Bft) W-SW 249 0 min 0,000 mm 0,0 UV-I 0 W/m 8,2 C 8,8 C 8,0 km/h (2 Bft)
18.12.2014 06:40 8,8 C 96 % 1011,9 hPa 0,0 l/m 3,0 km/h (1 Bft) SW 227 0 min 0,000 mm 0,0 UV-I 0 W/m 8,2 C 8,8 C 8,0 km/h (2 Bft)
18.12.2014 06:45 8,8 C 96 % 1011,9 hPa 0,0 l/m 1,5 km/h (1 Bft) W 267 0 min 0,000 mm 0,0 UV-I 0 W/m 8,2 C 8,8 C 8,0 km/h (2 Bft)
18.12.2014 06:50 8,7 C 96 % 1011,9 hPa 0,0 l/m 3,1 km/h (1 Bft) SW 226 0 min 0,000 mm 0,0 UV-I 0 W/m 8,1 C 8,7 C 11,3 km/h (2 Bft)
18.12.2014 06:55 8,7 C 96 % 1011,9 hPa 0,0 l/m 3,5 km/h (1 Bft) S-SW 213 0 min 0,000 mm 0,0 UV-I 0 W/m 8,1 C 8,7 C 9,7 km/h (2 Bft)
18.12.2014 07:00 8,7 C 96 % 1011,9 hPa 0,0 l/m 2,8 km/h (1 Bft) W-SW 242 0 min 0,000 mm 0,0 UV-I 0 W/m 8,1 C 8,7 C 9,7 km/h (2 Bft)
18.12.2014 07:05 8,7 C 96 % 1011,8 hPa 0,0 l/m 4,1 km/h (1 Bft) SW 233 0 min 0,000 mm 0,0 UV-I 0 W/m 8,1 C 8,7 C 11,3 km/h (2 Bft)
18.12.2014 07:10 8,7 C 96 % 1011,8 hPa 0,0 l/m 2,1 km/h (1 Bft) W 259 0 min 0,000 mm 0,0 UV-I 0 W/m 8,1 C 8,7 C 6,4 km/h (2 Bft)
18.12.2014 07:15 8,7 C 96 % 1011,7 hPa 0,0 l/m 3,1 km/h (1 Bft) S 184 0 min 0,000 mm 0,0 UV-I 0 W/m 8,1 C 8,7 C 9,7 km/h (2 Bft)
18.12.2014 07:20 8,7 C 96 % 1011,8 hPa 0,0 l/m 3,9 km/h (1 Bft) W 266 0 min 0,000 mm 0,0 UV-I 0 W/m 8,1 C 8,7 C 9,7 km/h (2 Bft)
18.12.2014 07:25 8,7 C 95 % 1011,9 hPa 0,0 l/m 4,2 km/h (1 Bft) W-NW 289 0 min 0,000 mm 0,0 UV-I 0 W/m 7,9 C 8,7 C 11,3 km/h (2 Bft)
18.12.2014 07:30 8,7 C 95 % 1011,9 hPa 0,0 l/m 4,6 km/h (1 Bft) SW 215 0 min 0,000 mm 0,0 UV-I 0 W/m 7,9 C 8,7 C 11,3 km/h (2 Bft)
18.12.2014 07:35 8,7 C 95 % 1011,9 hPa 0,0 l/m 4,5 km/h (1 Bft) W 259 0 min 0,000 mm 0,0 UV-I 0 W/m 7,9 C 8,7 C 14,5 km/h (3 Bft)
18.12.2014 07:40 8,6 C 95 % 1011,9 hPa 0,0 l/m 3,5 km/h (1 Bft) W 271 0 min 0,000 mm 0,0 UV-I 0 W/m 7,8 C 8,6 C 9,7 km/h (2 Bft)
18.12.2014 07:45 8,6 C 95 % 1011,9 hPa 0,0 l/m 4,0 km/h (1 Bft) SW 225 0 min 0,000 mm 0,0 UV-I 0 W/m 7,8 C 8,6 C 12,9 km/h (3 Bft)
18.12.2014 07:50 8,6 C 95 % 1012,0 hPa 0,0 l/m 3,7 km/h (1 Bft) SW 229 0 min 0,000 mm 0,0 UV-I 0 W/m 7,8 C 8,6 C 9,7 km/h (2 Bft)
18.12.2014 07:55 8,6 C 95 % 1012,0 hPa 0,0 l/m 4,7 km/h (1 Bft) S-SW 203 0 min 0,000 mm 0,0 UV-I 0 W/m 7,8 C 8,6 C 9,7 km/h (2 Bft)
18.12.2014 08:00 8,6 C 95 % 1012,0 hPa 0,0 l/m 4,0 km/h (1 Bft) W 263 0 min 0,000 mm 0,0 UV-I 0 W/m 7,8 C 8,6 C 11,3 km/h (2 Bft)
18.12.2014 08:05 8,5 C 95 % 1012,0 hPa 0,0 l/m 3,8 km/h (1 Bft) SW 221 0 min 0,000 mm 0,0 UV-I 0 W/m 7,7 C 8,5 C 11,3 km/h (2 Bft)
18.12.2014 08:10 8,5 C 95 % 1012,0 hPa 0,0 l/m 2,0 km/h (1 Bft) SW 236 0 min 0,000 mm 0,0 UV-I 0 W/m 7,7 C 8,5 C 8,0 km/h (2 Bft)
18.12.2014 08:14 8,4 C 95 % 1012,1 hPa 0,0 l/m 1,5 km/h (1 Bft) W 260 0 min 0,000 mm 0,0 UV-I 0 W/m 7,6 C 8,4 C 8,0 km/h (2 Bft)
18.12.2014 08:15 8,4 C 95 % 1012,1 hPa 0,0 l/m 2,2 km/h (1 Bft) W-SW 241 0 min 0,000 mm 0,0 UV-I 0 W/m 7,6 C 8,4 C 4,8 km/h (1 Bft)
18.12.2014 08:20 8,4 C 96 % 1012,1 hPa 0,0 l/m 1,2 km/h (1 Bft) SW 234 0 min 0,000 mm 0,0 UV-I 0 W/m 7,8 C 8,4 C 6,4 km/h (2 Bft)
18.12.2014 08:25 8,5 C 96 % 1012,1 hPa 0,0 l/m 3,3 km/h (1 Bft) W 267 0 min 0,000 mm 0,0 UV-I 0 W/m 7,9 C 8,5 C 8,0 km/h (2 Bft)
18.12.2014 08:30 8,5 C 96 % 1012,0 hPa 0,0 l/m 2,9 km/h (1 Bft) W 273 0 min 0,000 mm 0,0 UV-I 0 W/m 7,9 C 8,5 C 8,0 km/h (2 Bft)
18.12.2014 08:35 8,5 C 96 % 1012,0 hPa 0,0 l/m 3,6 km/h (1 Bft) W-SW 243 0 min 0,000 mm 0,0 UV-I 0 W/m 7,9 C 8,5 C 11,3 km/h (2 Bft)
18.12.2014 08:40 8,5 C 96 % 1012,0 hPa 0,0 l/m 3,9 km/h (1 Bft) W-NW 292 0 min 0,000 mm 0,0 UV-I 3 W/m 7,9 C 8,5 C 8,0 km/h (2 Bft)
18.12.2014 08:45 8,5 C 96 % 1012,1 hPa 0,0 l/m 3,9 km/h (1 Bft) W-SW 248 0 min 0,000 mm 0,0 UV-I 5 W/m 7,9 C 8,5 C 9,7 km/h (2 Bft)
18.12.2014 08:50 8,5 C 96 % 1012,2 hPa 0,0 l/m 2,9 km/h (1 Bft) W-NW 287 0 min 0,000 mm 0,0 UV-I 7 W/m 7,9 C 8,5 C 11,3 km/h (2 Bft)
18.12.2014 08:55 8,5 C 96 % 1012,2 hPa 0,0 l/m 2,1 km/h (1 Bft) W-NW 292 0 min 0,000 mm 0,0 UV-I 6 W/m 7,9 C 8,5 C 6,4 km/h (2 Bft)
18.12.2014 09:00 8,5 C 96 % 1012,2 hPa 0,0 l/m 1,1 km/h (1 Bft) W-SW 244 0 min 0,000 mm 0,0 UV-I 7 W/m 7,9 C 8,5 C 6,4 km/h (2 Bft)
18.12.2014 09:05 8,6 C 96 % 1012,2 hPa 0,0 l/m 2,8 km/h (1 Bft) W 265 0 min 0,000 mm 0,0 UV-I 7 W/m 8,0 C 8,6 C 8,0 km/h (2 Bft)
18.12.2014 09:10 8,6 C 96 % 1012,2 hPa 0,0 l/m 1,0 km/h (0 Bft) W 273 0 min 0,000 mm 0,0 UV-I 10 W/m 8,0 C 8,6 C 6,4 km/h (2 Bft)
18.12.2014 09:15 8,6 C 96 % 1012,1 hPa 0,0 l/m 1,6 km/h (1 Bft) SW 222 0 min 0,000 mm 0,0 UV-I 13 W/m 8,0 C 8,6 C 6,4 km/h (2 Bft)
18.12.2014 09:20 8,6 C 96 % 1012,1 hPa 0,0 l/m 1,5 km/h (1 Bft) W-SW 258 0 min 0,000 mm 0,0 UV-I 14 W/m 8,0 C 8,6 C 9,7 km/h (2 Bft)
18.12.2014 09:25 8,6 C 96 % 1012,2 hPa 0,0 l/m 3,9 km/h (1 Bft) W 279 0 min 0,000 mm 0,0 UV-I 16 W/m 8,0 C 8,6 C 11,3 km/h (2 Bft)
18.12.2014 09:30 8,7 C 96 % 1012,2 hPa 0,0 l/m 5,0 km/h (1 Bft) W-SW 248 0 min 0,000 mm 0,0 UV-I 27 W/m 8,1 C 8,7 C 8,0 km/h (2 Bft)
18.12.2014 09:35 8,7 C 96 % 1012,2 hPa 0,0 l/m 4,8 km/h (1 Bft) W-SW 249 0 min 0,000 mm 0,0 UV-I 44 W/m 8,1 C 8,7 C 9,7 km/h (2 Bft)
18.12.2014 09:40 8,8 C 95 % 1012,2 hPa 0,0 l/m 5,7 km/h (1 Bft) S 191 0 min 0,000 mm 0,0 UV-I 28 W/m 8,0 C 8,8 C 11,3 km/h (2 Bft)
18.12.2014 09:45 8,8 C 96 % 1012,1 hPa 0,0 l/m 3,0 km/h (1 Bft) W-SW 250 0 min 0,000 mm 0,0 UV-I 42 W/m 8,2 C 8,8 C 8,0 km/h (2 Bft)
18.12.2014 09:50 8,8 C 96 % 1012,1 hPa 0,0 l/m 0,9 km/h (0 Bft) W 273 0 min 0,000 mm 0,0 UV-I 39 W/m 8,2 C 8,8 C 6,4 km/h (2 Bft)
18.12.2014 09:55 8,9 C 95 % 1012,1 hPa 0,0 l/m 4,1 km/h (1 Bft) SW 234 0 min 0,000 mm 0,0 UV-I 35 W/m 8,1 C 8,9 C 8,0 km/h (2 Bft)
18.12.2014 10:00 8,9 C 95 % 1012,1 hPa 0,0 l/m 0,4 km/h (0 Bft) W-SW 258 0 min 0,000 mm 0,0 UV-I 32 W/m 8,1 C 8,9 C 3,2 km/h (1 Bft)
18.12.2014 10:05 8,9 C 95 % 1012,3 hPa 0,0 l/m 1,1 km/h (1 Bft) W-SW 245 0 min 0,000 mm 0,0 UV-I 35 W/m 8,1 C 8,9 C 6,4 km/h (2 Bft)
18.12.2014 10:10 9,0 C 95 % 1012,4 hPa 0,0 l/m 1,9 km/h (1 Bft) W 271 0 min 0,000 mm 0,0 UV-I 35 W/m 8,2 C 9,0 C 8,0 km/h (2 Bft)
18.12.2014 10:15 9,1 C 95 % 1012,4 hPa 0,0 l/m 2,6 km/h (1 Bft) W-SW 252 0 min 0,000 mm 0,0 UV-I 26 W/m 8,3 C 9,1 C 6,4 km/h (2 Bft)
18.12.2014 10:20 9,1 C 95 % 1012,5 hPa 0,0 l/m 2,0 km/h (1 Bft) W-SW 244 0 min 0,000 mm 0,0 UV-I 27 W/m 8,3 C 9,1 C 6,4 km/h (2 Bft)
18.12.2014 10:25 9,1 C 95 % 1012,5 hPa 0,0 l/m 3,3 km/h (1 Bft) W-SW 254 0 min 0,000 mm 0,0 UV-I 26 W/m 8,3 C 9,1 C 8,0 km/h (2 Bft)
18.12.2014 10:30 9,1 C 95 % 1012,4 hPa 0,0 l/m 2,5 km/h (1 Bft) W-SW 250 0 min 0,000 mm 0,0 UV-I 30 W/m 8,3 C 9,1 C 6,4 km/h (2 Bft)
18.12.2014 10:35 9,2 C 95 % 1012,3 hPa 0,0 l/m 1,8 km/h (1 Bft) W-SW 239 0 min 0,000 mm 0,0 UV-I 32 W/m 8,4 C 9,2 C 6,4 km/h (2 Bft)
18.12.2014 10:40 9,2 C 95 % 1012,3 hPa 0,0 l/m 2,5 km/h (1 Bft) W 261 0 min 0,000 mm 0,0 UV-I 37 W/m 8,4 C 9,2 C 8,0 km/h (2 Bft)
18.12.2014 10:45 9,2 C 95 % 1012,3 hPa 0,0 l/m 1,2 km/h (1 Bft) W-SW 248 0 min 0,000 mm 0,0 UV-I 51 W/m 8,4 C 9,2 C 4,8 km/h (1 Bft)
18.12.2014 10:50 9,3 C 95 % 1012,4 hPa 0,0 l/m 0,5 km/h (0 Bft) W 261 0 min 0,000 mm 0,0 UV-I 37 W/m 8,5 C 9,3 C 3,2 km/h (1 Bft)
18.12.2014 10:55 9,3 C 95 % 1012,5 hPa 0,0 l/m 0,9 km/h (0 Bft) W-NW 290 0 min 0,000 mm 0,0 UV-I 32 W/m 8,5 C 9,3 C 8,0 km/h (2 Bft)
18.12.2014 11:00 9,4 C 95 % 1012,5 hPa 0,0 l/m 1,9 km/h (1 Bft) W-NW 295 0 min 0,025 mm 0,0 UV-I 39 W/m 8,6 C 9,4 C 4,8 km/h (1 Bft)
18.12.2014 11:05 9,4 C 96 % 1012,4 hPa 0,0 l/m 1,3 km/h (1 Bft) W 261 0 min 0,000 mm 0,0 UV-I 67 W/m 8,8 C 9,4 C 4,8 km/h (1 Bft)
18.12.2014 11:10 9,6 C 96 % 1012,4 hPa 0,0 l/m 2,1 km/h (1 Bft) W 265 0 min 0,000 mm 0,0 UV-I 81 W/m 9,0 C 9,6 C 8,0 km/h (2 Bft)
18.12.2014 11:15 9,7 C 96 % 1012,5 hPa 0,0 l/m 1,0 km/h (0 Bft) W 263 0 min 0,000 mm 0,0 UV-I 96 W/m 9,1 C 9,7 C 6,4 km/h (2 Bft)
18.12.2014 11:20 9,8 C 96 % 1012,4 hPa 0,0 l/m 2,1 km/h (1 Bft) W-SW 246 0 min 0,000 mm 0,0 UV-I 67 W/m 9,2 C 9,8 C 8,0 km/h (2 Bft)
18.12.2014 11:25 9,8 C 96 % 1012,4 hPa 0,0 l/m 1,3 km/h (1 Bft) W-SW 240 0 min 0,000 mm 0,0 UV-I 63 W/m 9,2 C 9,8 C 4,8 km/h (1 Bft)
18.12.2014 11:30 9,9 C 95 % 1012,4 hPa 0,0 l/m 3,2 km/h (1 Bft) W 268 0 min 0,000 mm 0,0 UV-I 55 W/m 9,1 C 9,9 C 9,7 km/h (2 Bft)
18.12.2014 11:35 9,9 C 95 % 1012,3 hPa 0,0 l/m 2,1 km/h (1 Bft) W-SW 249 0 min 0,000 mm 0,0 UV-I 73 W/m 9,1 C 9,9 C 6,4 km/h (2 Bft)
18.12.2014 11:40 10,1 C 95 % 1012,1 hPa 0,0 l/m 1,9 km/h (1 Bft) W-SW 252 0 min 0,000 mm 0,1 UV-I 128 W/m 9,3 C 10,1 C 6,4 km/h (2 Bft)
18.12.2014 11:45 10,2 C 95 % 1012,1 hPa 0,0 l/m 2,0 km/h (1 Bft) W 261 5 min 0,000 mm 0,2 UV-I 159 W/m 9,4 C 10,2 C 6,4 km/h (2 Bft)
18.12.2014 11:50 10,3 C 95 % 1012,0 hPa 0,0 l/m 2,3 km/h (1 Bft) W 265 0 min 0,000 mm 0,0 UV-I 93 W/m 9,5 C 10,3 C 8,0 km/h (2 Bft)
18.12.2014 11:55 10,4 C 95 % 1012,0 hPa 0,0 l/m 5,1 km/h (1 Bft) SW 236 0 min 0,000 mm 0,0 UV-I 69 W/m 9,6 C 10,4 C 12,9 km/h (3 Bft)
18.12.2014 12:00 10,5 C 94 % 1012,0 hPa 0,0 l/m 4,6 km/h (1 Bft) W 280 0 min 0,051 mm 0,0 UV-I 65 W/m 9,6 C 10,5 C 14,5 km/h (3 Bft)
18.12.2014 12:05 10,5 C 94 % 1011,8 hPa 0,0 l/m 5,3 km/h (1 Bft) W-SW 244 0 min 0,000 mm 0,0 UV-I 49 W/m 9,6 C 10,5 C 11,3 km/h (2 Bft)
18.12.2014 12:10 10,5 C 94 % 1011,7 hPa 0,0 l/m 7,1 km/h (2 Bft) W-SW 240 0 min 0,000 mm 0,0 UV-I 51 W/m 9,6 C 10,0 C 16,1 km/h (3 Bft)
18.12.2014 12:15 10,5 C 94 % 1011,7 hPa 0,0 l/m 5,1 km/h (1 Bft) SW 231 0 min 0,000 mm 0,0 UV-I 58 W/m 9,6 C 10,5 C 9,7 km/h (2 Bft)
18.12.2014 12:20 10,6 C 94 % 1011,7 hPa 0,0 l/m 2,1 km/h (1 Bft) W 273 0 min 0,000 mm 0,0 UV-I 55 W/m 9,7 C 10,6 C 9,7 km/h (2 Bft)
18.12.2014 12:25 10,6 C 94 % 1011,8 hPa 0,0 l/m 1,5 km/h (1 Bft) W 273 0 min 0,000 mm 0,0 UV-I 59 W/m 9,7 C 10,6 C 6,4 km/h (2 Bft)
18.12.2014 12:30 10,6 C 94 % 1011,8 hPa 0,0 l/m 1,7 km/h (1 Bft) W 267 0 min 0,000 mm 0,0 UV-I 60 W/m 9,7 C 10,6 C 11,3 km/h (2 Bft)
18.12.2014 12:35 10,7 C 94 % 1011,7 hPa 0,0 l/m 2,4 km/h (1 Bft) W 277 0 min 0,000 mm 0,0 UV-I 67 W/m 9,8 C 10,7 C 9,7 km/h (2 Bft)
18.12.2014 12:40 10,7 C 94 % 1011,7 hPa 0,0 l/m 4,1 km/h (1 Bft) W 261 0 min 0,000 mm 0,0 UV-I 89 W/m 9,8 C 10,7 C 8,0 km/h (2 Bft)
18.12.2014 12:45 10,8 C 94 % 1011,7 hPa 0,0 l/m 2,3 km/h (1 Bft) W 275 0 min 0,000 mm 0,0 UV-I 99 W/m 9,9 C 10,8 C 8,0 km/h (2 Bft)
18.12.2014 12:50 10,8 C 94 % 1011,6 hPa 0,0 l/m 6,5 km/h (2 Bft) W-SW 239 0 min 0,000 mm 0,0 UV-I 108 W/m 9,9 C 10,8 C 14,5 km/h (3 Bft)
18.12.2014 12:55 10,8 C 94 % 1011,6 hPa 0,0 l/m 5,6 km/h (1 Bft) SW 227 0 min 0,000 mm 0,0 UV-I 109 W/m 9,9 C 10,8 C 14,5 km/h (3 Bft)
18.12.2014 13:00 10,9 C 94 % 1011,6 hPa 0,0 l/m 6,3 km/h (2 Bft) W 265 0 min 0,026 mm 0,0 UV-I 65 W/m 10,0 C 10,9 C 11,3 km/h (2 Bft)
18.12.2014 13:05 10,9 C 94 % 1011,6 hPa 0,0 l/m 3,5 km/h (1 Bft) W 279 0 min 0,000 mm 0,0 UV-I 60 W/m 10,0 C 10,9 C 8,0 km/h (2 Bft)
18.12.2014 13:10 10,9 C 94 % 1011,6 hPa 0,0 l/m 5,3 km/h (1 Bft) W-NW 295 0 min 0,000 mm 0,0 UV-I 107 W/m 10,0 C 10,9 C 11,3 km/h (2 Bft)
18.12.2014 13:15 10,9 C 94 % 1011,6 hPa 0,0 l/m 4,8 km/h (1 Bft) W-SW 250 0 min 0,000 mm 0,0 UV-I 112 W/m 10,0 C 10,9 C 9,7 km/h (2 Bft)
18.12.2014 13:20 10,9 C 94 % 1011,5 hPa 0,0 l/m 5,5 km/h (1 Bft) SW 220 0 min 0,000 mm 0,0 UV-I 105 W/m 10,0 C 10,9 C 12,9 km/h (3 Bft)
18.12.2014 13:25 11,1 C 95 % 1011,4 hPa 0,0 l/m 3,5 km/h (1 Bft) W 259 0 min 0,000 mm 0,0 UV-I 95 W/m 10,3 C 11,1 C 8,0 km/h (2 Bft)
18.12.2014 13:30 11,1 C 95 % 1011,4 hPa 0,0 l/m 4,5 km/h (1 Bft) W-SW 248 0 min 0,000 mm 0,0 UV-I 97 W/m 10,3 C 11,1 C 9,7 km/h (2 Bft)
18.12.2014 13:35 11,1 C 94 % 1011,4 hPa 0,0 l/m 5,0 km/h (1 Bft) W-SW 245 0 min 0,000 mm 0,0 UV-I 64 W/m 10,2 C 11,1 C 11,3 km/h (2 Bft)
18.12.2014 13:40 11,1 C 94 % 1011,4 hPa 0,0 l/m 5,6 km/h (1 Bft) W 271 0 min 0,000 mm 0,0 UV-I 52 W/m 10,2 C 11,1 C 12,9 km/h (3 Bft)
18.12.2014 13:45 11,1 C 94 % 1011,3 hPa 0,0 l/m 5,3 km/h (1 Bft) W-SW 257 0 min 0,000 mm 0,0 UV-I 63 W/m 10,2 C 11,1 C 12,9 km/h (3 Bft)
18.12.2014 13:50 11,1 C 94 % 1011,3 hPa 0,0 l/m 5,1 km/h (1 Bft) W 279 0 min 0,000 mm 0,0 UV-I 75 W/m 10,2 C 11,1 C 11,3 km/h (2 Bft)
18.12.2014 13:55 11,1 C 94 % 1011,3 hPa 0,0 l/m 5,6 km/h (1 Bft) W-SW 240 0 min 0,000 mm 0,0 UV-I 68 W/m 10,2 C 11,1 C 11,3 km/h (2 Bft)
18.12.2014 14:00 11,1 C 94 % 1011,4 hPa 0,0 l/m 6,9 km/h (2 Bft) W-SW 255 0 min 0,050 mm 0,0 UV-I 84 W/m 10,2 C 10,8 C 14,5 km/h (3 Bft)
18.12.2014 14:05 11,1 C 94 % 1011,4 hPa 0,0 l/m 6,5 km/h (2 Bft) W-SW 250 0 min 0,000 mm 0,0 UV-I 80 W/m 10,2 C 11,1 C 14,5 km/h (3 Bft)
18.12.2014 14:10 11,1 C 95 % 1011,5 hPa 0,0 l/m 5,1 km/h (1 Bft) W 272 0 min 0,000 mm 0,0 UV-I 59 W/m 10,3 C 11,1 C 14,5 km/h (3 Bft)
18.12.2014 14:15 11,1 C 94 % 1011,5 hPa 0,0 l/m 6,0 km/h (2 Bft) W 271 0 min 0,000 mm 0,0 UV-I 51 W/m 10,2 C 11,1 C 11,3 km/h (2 Bft)
18.12.2014 14:20 11,1 C 94 % 1011,4 hPa 0,0 l/m 5,7 km/h (1 Bft) W 275 0 min 0,000 mm 0,0 UV-I 43 W/m 10,2 C 11,1 C 11,3 km/h (2 Bft)
18.12.2014 14:25 11,1 C 94 % 1011,4 hPa 0,0 l/m 5,9 km/h (2 Bft) W 270 0 min 0,000 mm 0,0 UV-I 38 W/m 10,2 C 11,1 C 12,9 km/h (3 Bft)
18.12.2014 14:30 11,2 C 94 % 1011,5 hPa 0,0 l/m 5,2 km/h (1 Bft) W-SW 244 0 min 0,000 mm 0,0 UV-I 33 W/m 10,3 C 11,2 C 11,3 km/h (2 Bft)
18.12.2014 14:35 11,2 C 94 % 1011,5 hPa 0,0 l/m 6,9 km/h (2 Bft) W 264 0 min 0,000 mm 0,0 UV-I 34 W/m 10,3 C 10,9 C 12,9 km/h (3 Bft)
18.12.2014 14:40 11,2 C 94 % 1011,6 hPa 0,0 l/m 6,0 km/h (2 Bft) W 271 0 min 0,000 mm 0,0 UV-I 31 W/m 10,3 C 11,2 C 12,9 km/h (3 Bft)
18.12.2014 14:45 11,2 C 94 % 1011,6 hPa 0,0 l/m 6,4 km/h (2 Bft) W-SW 249 0 min 0,000 mm 0,0 UV-I 29 W/m 10,3 C 11,2 C 14,5 km/h (3 Bft)
18.12.2014 14:50 11,2 C 94 % 1011,6 hPa 0,0 l/m 6,6 km/h (2 Bft) W 273 0 min 0,000 mm 0,0 UV-I 29 W/m 10,3 C 11,1 C 14,5 km/h (3 Bft)
18.12.2014 14:55 11,2 C 94 % 1011,6 hPa 0,0 l/m 6,2 km/h (2 Bft) W 273 0 min 0,000 mm 0,0 UV-I 24 W/m 10,3 C 11,2 C 11,3 km/h (2 Bft)
18.12.2014 15:00 11,2 C 94 % 1011,7 hPa 0,0 l/m 6,1 km/h (2 Bft) W 275 0 min 0,026 mm 0,0 UV-I 25 W/m 10,3 C 11,2 C 12,9 km/h (3 Bft)
18.12.2014 15:05 11,2 C 94 % 1011,8 hPa 0,0 l/m 6,0 km/h (2 Bft) W 263 0 min 0,000 mm 0,0 UV-I 24 W/m 10,3 C 11,2 C 12,9 km/h (3 Bft)
18.12.2014 15:10 11,2 C 94 % 1011,8 hPa 0,0 l/m 5,5 km/h (1 Bft) W 270 0 min 0,000 mm 0,0 UV-I 21 W/m 10,3 C 11,2 C 11,3 km/h (2 Bft)
18.12.2014 15:15 11,2 C 95 % 1011,8 hPa 0,0 l/m 4,3 km/h (1 Bft) W 273 0 min 0,000 mm 0,0 UV-I 22 W/m 10,4 C 11,2 C 14,5 km/h (3 Bft)
18.12.2014 15:20 11,2 C 94 % 1011,6 hPa 0,0 l/m 6,6 km/h (2 Bft) SW 233 0 min 0,000 mm 0,0 UV-I 21 W/m 10,3 C 11,1 C 12,9 km/h (3 Bft)
18.12.2014 15:25 11,2 C 94 % 1011,7 hPa 0,0 l/m 3,8 km/h (1 Bft) W-SW 246 0 min 0,000 mm 0,0 UV-I 16 W/m 10,3 C 11,2 C 11,3 km/h (2 Bft)
18.12.2014 15:30 11,2 C 94 % 1011,8 hPa 0,0 l/m 4,1 km/h (1 Bft) W-SW 257 0 min 0,000 mm 0,0 UV-I 12 W/m 10,3 C 11,2 C 9,7 km/h (2 Bft)
18.12.2014 15:35 11,2 C 94 % 1011,9 hPa 0,0 l/m 5,1 km/h (1 Bft) W 278 0 min 0,000 mm 0,0 UV-I 10 W/m 10,3 C 11,2 C 12,9 km/h (3 Bft)
18.12.2014 15:40 11,2 C 94 % 1011,9 hPa 0,0 l/m 7,7 km/h (2 Bft) W-SW 244 0 min 0,000 mm 0,0 UV-I 10 W/m 10,3 C 10,3 C 12,9 km/h (3 Bft)
18.12.2014 15:45 11,2 C 94 % 1012,0 hPa 0,0 l/m 4,2 km/h (1 Bft) SW 232 0 min 0,000 mm 0,0 UV-I 9 W/m 10,3 C 11,2 C 9,7 km/h (2 Bft)
18.12.2014 15:50 11,2 C 95 % 1012,0 hPa 0,0 l/m 6,0 km/h (2 Bft) W-SW 251 0 min 0,000 mm 0,0 UV-I 6 W/m 10,4 C 11,2 C 12,9 km/h (3 Bft)
18.12.2014 15:55 11,2 C 95 % 1011,9 hPa 0,0 l/m 5,5 km/h (1 Bft) W 267 0 min 0,000 mm 0,0 UV-I 6 W/m 10,4 C 11,2 C 12,9 km/h (3 Bft)
18.12.2014 16:00 11,1 C 95 % 1012,0 hPa 0,0 l/m 4,7 km/h (1 Bft) W-SW 246 0 min 0,000 mm 0,0 UV-I 1 W/m 10,3 C 11,1 C 9,7 km/h (2 Bft)
18.12.2014 16:05 11,1 C 95 % 1012,0 hPa 0,0 l/m 6,8 km/h (2 Bft) W-SW 258 0 min 0,000 mm 0,0 UV-I 0 W/m 10,3 C 10,8 C 12,9 km/h (3 Bft)
18.12.2014 16:10 11,1 C 95 % 1012,0 hPa 0,0 l/m 5,1 km/h (1 Bft) W 279 0 min 0,000 mm 0,0 UV-I 2 W/m 10,3 C 11,1 C 12,9 km/h (3 Bft)
18.12.2014 16:15 11,1 C 95 % 1012,0 hPa 0,0 l/m 4,5 km/h (1 Bft) W-NW 283 0 min 0,000 mm 0,0 UV-I 5 W/m 10,3 C 11,1 C 14,5 km/h (3 Bft)
18.12.2014 16:20 11,1 C 95 % 1012,0 hPa 0,0 l/m 4,8 km/h (1 Bft) SW 223 0 min 0,000 mm 0,0 UV-I 5 W/m 10,3 C 11,1 C 11,3 km/h (2 Bft)
18.12.2014 16:25 11,1 C 95 % 1012,1 hPa 0,0 l/m 3,1 km/h (1 Bft) W 275 0 min 0,000 mm 0,0 UV-I 2 W/m 10,3 C 11,1 C 8,0 km/h (2 Bft)
18.12.2014 16:30 11,1 C 95 % 1012,0 hPa 0,0 l/m 3,1 km/h (1 Bft) W 263 0 min 0,000 mm 0,0 UV-I 0 W/m 10,3 C 11,1 C 9,7 km/h (2 Bft)
18.12.2014 16:35 11,1 C 95 % 1012,1 hPa 0,0 l/m 3,5 km/h (1 Bft) W 271 0 min 0,000 mm 0,0 UV-I 0 W/m 10,3 C 11,1 C 9,7 km/h (2 Bft)
18.12.2014 16:40 11,2 C 94 % 1012,0 hPa 0,0 l/m 6,1 km/h (2 Bft) W-SW 245 0 min 0,000 mm 0,0 UV-I 0 W/m 10,3 C 11,2 C 11,3 km/h (2 Bft)
18.12.2014 16:45 11,2 C 94 % 1012,0 hPa 0,0 l/m 4,7 km/h (1 Bft) W-NW 299 0 min 0,000 mm 0,0 UV-I 0 W/m 10,3 C 11,2 C 12,9 km/h (3 Bft)
18.12.2014 16:50 11,2 C 94 % 1012,2 hPa 0,0 l/m 6,1 km/h (2 Bft) W-SW 253 0 min 0,000 mm 0,0 UV-I 0 W/m 10,3 C 11,2 C 11,3 km/h (2 Bft)
18.12.2014 16:55 11,2 C 95 % 1012,3 hPa 0,0 l/m 6,2 km/h (2 Bft) W-SW 253 0 min 0,000 mm 0,0 UV-I 0 W/m 10,4 C 11,2 C 12,9 km/h (3 Bft)
18.12.2014 17:00 11,1 C 95 % 1012,2 hPa 0,0 l/m 6,3 km/h (2 Bft) W-SW 252 0 min 0,000 mm 0,0 UV-I 0 W/m 10,3 C 11,1 C 12,9 km/h (3 Bft)
18.12.2014 17:05 11,1 C 95 % 1012,3 hPa 0,0 l/m 6,9 km/h (2 Bft) W-NW 292 0 min 0,000 mm 0,0 UV-I 0 W/m 10,3 C 10,8 C 14,5 km/h (3 Bft)
18.12.2014 17:10 11,1 C 95 % 1012,3 hPa 0,0 l/m 4,6 km/h (1 Bft) W-NW 290 0 min 0,000 mm 0,0 UV-I 0 W/m 10,3 C 11,1 C 11,3 km/h (2 Bft)
18.12.2014 17:15 11,1 C 95 % 1012,3 hPa 0,0 l/m 4,2 km/h (1 Bft) W 264 0 min 0,000 mm 0,0 UV-I 0 W/m 10,3 C 11,1 C 11,3 km/h (2 Bft)
18.12.2014 17:20 11,1 C 95 % 1012,4 hPa 0,0 l/m 5,7 km/h (1 Bft) W-NW 283 0 min 0,000 mm 0,0 UV-I 0 W/m 10,3 C 11,1 C 9,7 km/h (2 Bft)
18.12.2014 17:25 11,0 C 95 % 1012,5 hPa 0,0 l/m 6,2 km/h (2 Bft) W 269 0 min 0,000 mm 0,0 UV-I 0 W/m 10,2 C 11,0 C 11,3 km/h (2 Bft)
18.12.2014 17:30 11,0 C 95 % 1012,4 hPa 0,0 l/m 5,6 km/h (1 Bft) W-SW 244 0 min 0,000 mm 0,0 UV-I 0 W/m 10,2 C 11,0 C 12,9 km/h (3 Bft)
18.12.2014 17:35 11,0 C 96 % 1012,3 hPa 0,0 l/m 5,5 km/h (1 Bft) W-NW 298 0 min 0,000 mm 0,0 UV-I 0 W/m 10,4 C 11,0 C 9,7 km/h (2 Bft)
18.12.2014 17:40 10,9 C 96 % 1012,3 hPa 0,0 l/m 4,2 km/h (1 Bft) W-SW 257 0 min 0,000 mm 0,0 UV-I 0 W/m 10,3 C 10,9 C 8,0 km/h (2 Bft)
18.12.2014 17:45 10,9 C 96 % 1012,4 hPa 0,0 l/m 6,5 km/h (2 Bft) W 281 0 min 0,000 mm 0,0 UV-I 0 W/m 10,3 C 10,9 C 11,3 km/h (2 Bft)
18.12.2014 17:50 10,9 C 96 % 1012,6 hPa 0,0 l/m 7,9 km/h (2 Bft) W 267 0 min 0,000 mm 0,0 UV-I 0 W/m 10,3 C 9,9 C 14,5 km/h (3 Bft)
18.12.2014 17:55 11,0 C 96 % 1012,5 hPa 0,0 l/m 6,2 km/h (2 Bft) W 275 0 min 0,000 mm 0,0 UV-I 0 W/m 10,4 C 11,0 C 12,9 km/h (3 Bft)
18.12.2014 18:00 11,0 C 96 % 1012,5 hPa 0,0 l/m 4,4 km/h (1 Bft) W 270 0 min 0,000 mm 0,0 UV-I 0 W/m 10,4 C 11,0 C 11,3 km/h (2 Bft)
18.12.2014 18:05 11,1 C 95 % 1012,2 hPa 0,0 l/m 5,3 km/h (1 Bft) W-SW 252 0 min 0,000 mm 0,0 UV-I 0 W/m 10,3 C 11,1 C 12,9 km/h (3 Bft)
18.12.2014 18:10 11,1 C 95 % 1012,5 hPa 0,0 l/m 6,3 km/h (2 Bft) W-SW 246 0 min 0,000 mm 0,0 UV-I 0 W/m 10,3 C 11,1 C 11,3 km/h (2 Bft)
18.12.2014 18:15 11,1 C 95 % 1012,5 hPa 0,0 l/m 5,4 km/h (1 Bft) W-NW 288 0 min 0,000 mm 0,0 UV-I 0 W/m 10,3 C 11,1 C 11,3 km/h (2 Bft)
18.12.2014 18:20 11,1 C 95 % 1012,5 hPa 0,0 l/m 5,4 km/h (1 Bft) W 279 0 min 0,000 mm 0,0 UV-I 0 W/m 10,3 C 11,1 C 11,3 km/h (2 Bft)
18.12.2014 18:25 11,1 C 95 % 1012,5 hPa 0,0 l/m 6,2 km/h (2 Bft) W 278 0 min 0,000 mm 0,0 UV-I 0 W/m 10,3 C 11,1 C 12,9 km/h (3 Bft)
18.12.2014 18:30 11,2 C 95 % 1012,6 hPa 0,0 l/m 5,8 km/h (2 Bft) W 277 0 min 0,000 mm 0,0 UV-I 0 W/m 10,4 C 11,2 C 12,9 km/h (3 Bft)
18.12.2014 18:35 11,2 C 95 % 1012,6 hPa 0,0 l/m 7,5 km/h (2 Bft) W-SW 253 0 min 0,000 mm 0,0 UV-I 0 W/m 10,4 C 10,4 C 12,9 km/h (3 Bft)
18.12.2014 18:40 11,2 C 95 % 1012,6 hPa 0,0 l/m 7,0 km/h (2 Bft) W-SW 246 0 min 0,000 mm 0,0 UV-I 0 W/m 10,4 C 10,8 C 12,9 km/h (3 Bft)
18.12.2014 18:45 11,2 C 95 % 1012,6 hPa 0,0 l/m 6,7 km/h (2 Bft) W-NW 298 0 min 0,000 mm 0,0 UV-I 0 W/m 10,4 C 11,0 C 12,9 km/h (3 Bft)
18.12.2014 18:50 11,2 C 95 % 1012,7 hPa 0,0 l/m 7,3 km/h (2 Bft) W 266 0 min 0,000 mm 0,0 UV-I 0 W/m 10,4 C 10,6 C 12,9 km/h (3 Bft)
18.12.2014 18:55 11,3 C 95 % 1012,7 hPa 0,0 l/m 7,1 km/h (2 Bft) W 259 0 min 0,000 mm 0,0 UV-I 0 W/m 10,5 C 10,8 C 14,5 km/h (3 Bft)
18.12.2014 19:00 11,3 C 95 % 1012,7 hPa 0,0 l/m 6,5 km/h (2 Bft) W-SW 251 0 min 0,000 mm 0,0 UV-I 0 W/m 10,5 C 11,3 C 14,5 km/h (3 Bft)
18.12.2014 19:05 11,4 C 94 % 1012,7 hPa 0,0 l/m 4,4 km/h (1 Bft) W 268 0 min 0,000 mm 0,0 UV-I 0 W/m 10,5 C 11,4 C 11,3 km/h (2 Bft)
18.12.2014 19:10 11,5 C 94 % 1012,6 hPa 0,0 l/m 9,0 km/h (2 Bft) W 281 0 min 0,000 mm 0,0 UV-I 0 W/m 10,6 C 9,8 C 16,1 km/h (3 Bft)
18.12.2014 19:15 11,6 C 94 % 1012,6 hPa 0,0 l/m 7,8 km/h (2 Bft) W 279 0 min 0,000 mm 0,0 UV-I 0 W/m 10,7 C 10,7 C 12,9 km/h (3 Bft)
18.12.2014 19:20 11,7 C 94 % 1012,6 hPa 0,0 l/m 8,5 km/h (2 Bft) W-NW 297 0 min 0,000 mm 0,0 UV-I 0 W/m 10,8 C 10,3 C 14,5 km/h (3 Bft)
18.12.2014 19:25 11,8 C 93 % 1012,6 hPa 0,0 l/m 8,8 km/h (2 Bft) W-NW 290 0 min 0,000 mm 0,0 UV-I 0 W/m 10,7 C 10,3 C 16,1 km/h (3 Bft)
18.12.2014 19:30 11,8 C 93 % 1012,7 hPa 0,0 l/m 8,8 km/h (2 Bft) W 269 0 min 0,000 mm 0,0 UV-I 0 W/m 10,7 C 10,3 C 20,9 km/h (4 Bft)
18.12.2014 19:35 11,9 C 93 % 1012,8 hPa 0,0 l/m 7,3 km/h (2 Bft) W-NW 296 0 min 0,000 mm 0,0 UV-I 0 W/m 10,8 C 11,3 C 12,9 km/h (3 Bft)
18.12.2014 19:40 12,0 C 93 % 1012,8 hPa 0,0 l/m 11,6 km/h (2 Bft) W-NW 288 0 min 0,000 mm 0,0 UV-I 0 W/m 10,9 C 9,0 C 20,9 km/h (4 Bft)
18.12.2014 19:45 12,1 C 92 % 1012,9 hPa 0,0 l/m 9,2 km/h (2 Bft) W-NW 290 0 min 0,000 mm 0,0 UV-I 0 W/m 10,8 C 10,3 C 20,9 km/h (4 Bft)
18.12.2014 19:50 12,1 C 92 % 1013,0 hPa 0,0 l/m 10,9 km/h (2 Bft) W-SW 244 0 min 0,000 mm 0,0 UV-I 0 W/m 10,8 C 9,5 C 22,5 km/h (4 Bft)
18.12.2014 19:55 12,1 C 92 % 1013,1 hPa 0,0 l/m 10,1 km/h (2 Bft) W 276 0 min 0,000 mm 0,0 UV-I 0 W/m 10,8 C 9,9 C 19,3 km/h (3 Bft)
18.12.2014 20:00 12,2 C 92 % 1013,1 hPa 0,0 l/m 10,3 km/h (2 Bft) W-SW 246 0 min 0,000 mm 0,0 UV-I 0 W/m 10,9 C 9,9 C 24,1 km/h (4 Bft)
18.12.2014 20:05 12,2 C 91 % 1013,1 hPa 0,0 l/m 9,0 km/h (2 Bft) W 259 0 min 0,000 mm 0,0 UV-I 0 W/m 10,8 C 10,6 C 16,1 km/h (3 Bft)
18.12.2014 20:10 12,2 C 91 % 1013,1 hPa 0,0 l/m 10,0 km/h (2 Bft) W 261 0 min 0,000 mm 0,0 UV-I 0 W/m 10,8 C 10,0 C 20,9 km/h (4 Bft)
18.12.2014 20:15 12,2 C 91 % 1013,1 hPa 0,0 l/m 9,7 km/h (2 Bft) W 281 0 min 0,000 mm 0,0 UV-I 0 W/m 10,8 C 10,2 C 16,1 km/h (3 Bft)
18.12.2014 20:20 12,2 C 91 % 1013,1 hPa 0,0 l/m 9,9 km/h (2 Bft) W 265 0 min 0,000 mm 0,0 UV-I 0 W/m 10,8 C 10,1 C 17,7 km/h (3 Bft)
18.12.2014 20:25 12,3 C 91 % 1013,1 hPa 0,0 l/m 12,6 km/h (3 Bft) W 275 0 min 0,000 mm 0,0 UV-I 0 W/m 10,9 C 8,9 C 24,1 km/h (4 Bft)
18.12.2014 20:30 12,3 C 90 % 1013,1 hPa 0,0 l/m 13,2 km/h (3 Bft) W-SW 256 0 min 0,000 mm 0,0 UV-I 0 W/m 10,7 C 8,6 C 24,1 km/h (4 Bft)
18.12.2014 20:35 12,3 C 89 % 1013,1 hPa 0,0 l/m 13,1 km/h (3 Bft) W-SW 245 0 min 0,000 mm 0,0 UV-I 0 W/m 10,5 C 8,7 C 24,1 km/h (4 Bft)
18.12.2014 20:40 12,4 C 89 % 1013,1 hPa 0,0 l/m 12,0 km/h (2 Bft) W-SW 253 0 min 0,000 mm 0,0 UV-I 0 W/m 10,6 C 9,3 C 27,4 km/h (4 Bft)
18.12.2014 20:45 12,4 C 88 % 1013,1 hPa 0,0 l/m 11,9 km/h (2 Bft) W 273 0 min 0,000 mm 0,0 UV-I 0 W/m 10,5 C 9,3 C 22,5 km/h (4 Bft)
18.12.2014 20:50 12,4 C 88 % 1013,2 hPa 0,0 l/m 13,1 km/h (3 Bft) W 270 0 min 0,000 mm 0,0 UV-I 0 W/m 10,5 C 8,8 C 22,5 km/h (4 Bft)
18.12.2014 20:55 12,4 C 88 % 1013,3 hPa 0,0 l/m 14,5 km/h (3 Bft) W 260 0 min 0,000 mm 0,0 UV-I 0 W/m 10,5 C 8,2 C 25,7 km/h (4 Bft)
18.12.2014 21:00 12,4 C 88 % 1013,3 hPa 0,0 l/m 11,9 km/h (2 Bft) W 265 0 min 0,025 mm 0,0 UV-I 0 W/m 10,5 C 9,3 C 22,5 km/h (4 Bft)
18.12.2014 21:05 12,4 C 87 % 1013,4 hPa 0,0 l/m 13,7 km/h (3 Bft) W 275 0 min 0,000 mm 0,0 UV-I 0 W/m 10,3 C 8,6 C 24,1 km/h (4 Bft)
18.12.2014 21:10 12,3 C 87 % 1013,6 hPa 0,0 l/m 12,5 km/h (3 Bft) W 269 0 min 0,000 mm 0,0 UV-I 0 W/m 10,2 C 8,9 C 24,1 km/h (4 Bft)
18.12.2014 21:15 12,3 C 87 % 1013,5 hPa 0,0 l/m 13,4 km/h (3 Bft) NW 309 0 min 0,000 mm 0,0 UV-I 0 W/m 10,2 C 8,6 C 30,6 km/h (5 Bft)
18.12.2014 21:20 12,3 C 87 % 1013,5 hPa 0,0 l/m 12,3 km/h (3 Bft) W 275 0 min 0,000 mm 0,0 UV-I 0 W/m 10,2 C 9,0 C 25,7 km/h (4 Bft)
18.12.2014 21:25 12,2 C 87 % 1013,5 hPa 0,0 l/m 12,1 km/h (2 Bft) W-SW 247 0 min 0,000 mm 0,0 UV-I 0 W/m 10,1 C 9,0 C 22,5 km/h (4 Bft)
18.12.2014 21:30 12,1 C 88 % 1013,5 hPa 0,0 l/m 10,0 km/h (2 Bft) SW 233 0 min 0,000 mm 0,0 UV-I 0 W/m 10,2 C 9,9 C 17,7 km/h (3 Bft)
18.12.2014 21:35 12,0 C 88 % 1013,4 hPa 0,0 l/m 10,0 km/h (2 Bft) SW 217 0 min 0,000 mm 0,0 UV-I 0 W/m 10,1 C 9,8 C 19,3 km/h (3 Bft)
18.12.2014 21:40 11,9 C 88 % 1013,5 hPa 0,0 l/m 8,8 km/h (2 Bft) SW 233 0 min 0,000 mm 0,0 UV-I 0 W/m 10,0 C 10,4 C 19,3 km/h (3 Bft)
18.12.2014 21:45 11,8 C 88 % 1013,5 hPa 0,0 l/m 10,5 km/h (2 Bft) W 259 0 min 0,000 mm 0,0 UV-I 0 W/m 9,9 C 9,3 C 19,3 km/h (3 Bft)
18.12.2014 21:50 11,8 C 88 % 1013,5 hPa 0,0 l/m 10,6 km/h (2 Bft) W 261 0 min 0,000 mm 0,0 UV-I 0 W/m 9,9 C 9,3 C 20,9 km/h (4 Bft)
18.12.2014 21:55 11,8 C 88 % 1013,6 hPa 0,0 l/m 11,8 km/h (2 Bft) W-SW 245 0 min 0,000 mm 0,0 UV-I 0 W/m 9,9 C 8,7 C 24,1 km/h (4 Bft)
18.12.2014 22:00 11,8 C 87 % 1013,5 hPa 0,0 l/m 12,6 km/h (3 Bft) W-NW 296 0 min 0,026 mm 0,0 UV-I 0 W/m 9,7 C 8,3 C 22,5 km/h (4 Bft)
18.12.2014 22:05 11,7 C 87 % 1013,5 hPa 0,0 l/m 12,9 km/h (3 Bft) W-SW 246 0 min 0,000 mm 0,0 UV-I 0 W/m 9,6 C 8,1 C 22,5 km/h (4 Bft)
18.12.2014 22:10 11,7 C 87 % 1013,5 hPa 0,0 l/m 12,7 km/h (3 Bft) W-SW 254 0 min 0,000 mm 0,0 UV-I 0 W/m 9,6 C 8,2 C 24,1 km/h (4 Bft)
18.12.2014 22:15 11,5 C 88 % 1013,5 hPa 0,0 l/m 15,7 km/h (3 Bft) W-SW 250 0 min 0,000 mm 0,0 UV-I 0 W/m 9,6 C 6,7 C 33,8 km/h (5 Bft)
18.12.2014 22:20 11,4 C 88 % 1013,5 hPa 0,0 l/m 17,2 km/h (3 Bft) W-SW 248 0 min 0,000 mm 0,0 UV-I 0 W/m 9,5 C 6,0 C 29,0 km/h (5 Bft)
18.12.2014 22:25 11,3 C 89 % 1013,4 hPa 0,0 l/m 14,9 km/h (3 Bft) W 268 0 min 0,000 mm 0,0 UV-I 0 W/m 9,6 C 6,7 C 25,7 km/h (4 Bft)
18.12.2014 22:30 11,2 C 89 % 1013,4 hPa 0,0 l/m 12,4 km/h (3 Bft) W-NW 294 0 min 0,000 mm 0,0 UV-I 0 W/m 9,5 C 7,7 C 25,7 km/h (4 Bft)
18.12.2014 22:35 11,1 C 89 % 1013,3 hPa 0,0 l/m 15,6 km/h (3 Bft) W-NW 286 0 min 0,000 mm 0,0 UV-I 0 W/m 9,4 C 6,2 C 29,0 km/h (5 Bft)
18.12.2014 22:40 11,0 C 90 % 1013,4 hPa 0,0 l/m 15,2 km/h (3 Bft) NW 306 0 min 0,000 mm 0,0 UV-I 0 W/m 9,4 C 6,3 C 25,7 km/h (4 Bft)
18.12.2014 22:45 10,8 C 90 % 1013,4 hPa 0,0 l/m 12,8 km/h (3 Bft) SW 219 0 min 0,000 mm 0,0 UV-I 0 W/m 9,2 C 7,1 C 22,5 km/h (4 Bft)
18.12.2014 22:50 10,8 C 91 % 1013,5 hPa 0,0 l/m 12,8 km/h (3 Bft) W-SW 246 0 min 0,000 mm 0,0 UV-I 0 W/m 9,4 C 7,1 C 20,9 km/h (4 Bft)
18.12.2014 22:55 10,7 C 91 % 1013,5 hPa 0,0 l/m 13,9 km/h (3 Bft) W-SW 244 0 min 0,000 mm 0,0 UV-I 0 W/m 9,3 C 6,4 C 27,4 km/h (4 Bft)
18.12.2014 23:00 10,7 C 91 % 1013,6 hPa 0,0 l/m 11,1 km/h (2 Bft) W-NW 294 0 min 0,025 mm 0,0 UV-I 0 W/m 9,3 C 7,8 C 20,9 km/h (4 Bft)
18.12.2014 23:05 10,6 C 92 % 1013,5 hPa 0,0 l/m 12,1 km/h (2 Bft) SW 228 0 min 0,000 mm 0,0 UV-I 0 W/m 9,4 C 7,2 C 25,7 km/h (4 Bft)
18.12.2014 23:10 10,6 C 92 % 1013,6 hPa 0,0 l/m 10,8 km/h (2 Bft) W-NW 282 0 min 0,000 mm 0,0 UV-I 0 W/m 9,4 C 7,8 C 20,9 km/h (4 Bft)
18.12.2014 23:15 10,6 C 92 % 1013,6 hPa 0,0 l/m 9,7 km/h (2 Bft) W 270 0 min 0,000 mm 0,0 UV-I 0 W/m 9,4 C 8,4 C 20,9 km/h (4 Bft)
18.12.2014 23:20 10,6 C 92 % 1013,6 hPa 0,0 l/m 12,9 km/h (3 Bft) W 270 0 min 0,000 mm 0,0 UV-I 0 W/m 9,4 C 6,8 C 25,7 km/h (4 Bft)
18.12.2014 23:25 10,6 C 92 % 1013,6 hPa 0,0 l/m 9,0 km/h (2 Bft) W-NW 290 0 min 0,000 mm 0,0 UV-I 0 W/m 9,4 C 8,8 C 17,7 km/h (3 Bft)
18.12.2014 23:30 10,6 C 92 % 1013,7 hPa 0,0 l/m 11,2 km/h (2 Bft) W-NW 288 0 min 0,000 mm 0,0 UV-I 0 W/m 9,4 C 7,6 C 22,5 km/h (4 Bft)
18.12.2014 23:35 10,6 C 92 % 1013,8 hPa 0,0 l/m 9,7 km/h (2 Bft) W 277 0 min 0,000 mm 0,0 UV-I 0 W/m 9,4 C 8,4 C 16,1 km/h (3 Bft)
18.12.2014 23:40 10,6 C 92 % 1013,7 hPa 0,0 l/m 11,6 km/h (2 Bft) W 275 0 min 0,000 mm 0,0 UV-I 0 W/m 9,4 C 7,4 C 22,5 km/h (4 Bft)
18.12.2014 23:45 10,6 C 92 % 1013,9 hPa 0,0 l/m 10,5 km/h (2 Bft) W-NW 289 0 min 0,000 mm 0,0 UV-I 0 W/m 9,4 C 8,0 C 19,3 km/h (3 Bft)
18.12.2014 23:50 10,6 C 92 % 1013,8 hPa 0,0 l/m 10,5 km/h (2 Bft) NW 304 0 min 0,000 mm 0,0 UV-I 0 W/m 9,4 C 8,0 C 22,5 km/h (4 Bft)
18.12.2014 23:55 10,6 C 92 % 1014,0 hPa 0,0 l/m 11,2 km/h (2 Bft) W-NW 293 0 min 0,000 mm 0,0 UV-I 0 W/m 9,4 C 7,6 C 20,9 km/h (4 Bft)
_ Min-Zeit 00:30 21:05 00:25 - 00:25 - - - - - - 00:00 22:20 03:40
Minimum _ 6,9 C 87 % 1011,1 hPa - 0,0 km/h (0 Bft) - - - - - - 6,6 C 6,0 C 0,0 km/h (0 Bft)
_ Max-Zeit 20:40 00:00 23:55 02:15 22:20 - - 11:45 12:00 11:45 11:45 20:00 19:05 22:15
Maximum _ 12,4 C 97 % 1014,0 hPa 0,2 l/m 17,2 km/h
W-SW (3 Bft)
- - 5 min 0,051 mm 0,2 UV-I 159 W/m 10,9 C 11,4 C 33,8 km/h
W (5 Bft)
Durchschnitt _ 9,9 C 94 % 1012,2 hPa #0,2 l/m 5,2 km/h (1 Bft) W - #5 min. #0,254 mm 0,2 UV-I 46 W/m 9,0 C 9,2 C 11,6 km/h (2 Bft)